• In Hungary
  • List of Countries
  • For 7 days
  • Water Temperature
  • Satellite Maps
  • Weather Map
  • News
  • Weather Widgets
  • user-avatar
    Login

    Hourly Weather Uralsk

    Today, 15 November, Thursday

    Time Temperature Precipitation Wind Pressure Humidity
    00:00 -4°C° 0 mm 1 mps 772 mmHg 26%
    01:00 -6°C° 0 mm 2 mps 772 mmHg 26%
    02:00 -6°C° 0 mm 2 mps 771 mmHg 26%
    03:00 -7°C° 0 mm 2 mps 772 mmHg 27%
    04:00 -7°C° 0 mm 2 mps 772 mmHg 27%
    05:00 -7°C° 0 mm 2 mps 772 mmHg 27%
    06:00 -7°C° 0 mm 2 mps 772 mmHg 27%
    07:00 -6°C° 0 mm 2 mps 772 mmHg 25%
    08:00 -5°C° 0 mm 2 mps 772 mmHg 23%
    09:00 -5°C° 0 mm 2 mps 773 mmHg 22%
    10:00 -3°C° 0 mm 2 mps 773 mmHg 20%
    11:00 -2°C° 0 mm 2 mps 773 mmHg 18%
    12:00 -1°C° 0 mm 3 mps 773 mmHg 16%
    13:00 -2°C° 0 mm 2 mps 773 mmHg 18%
    14:00 -2°C° 0 mm 2 mps 773 mmHg 19%
    15:00 -3°C° 0 mm 2 mps 773 mmHg 22%
    16:00 -3°C° 0 mm 2 mps 773 mmHg 23%
    17:00 -5°C° 0 mm 3 mps 773 mmHg 25%
    18:00 -6°C° 0 mm 3 mps 773 mmHg 26%
    19:00 -6°C° 0 mm 3 mps 773 mmHg 26%
    20:00 -6°C° 0 mm 3 mps 773 mmHg 26%
    21:00 -6°C° 0 mm 3 mps 773 mmHg 27%
    22:00 -6°C° 0 mm 3 mps 773 mmHg 27%
    23:00 -6°C° 0 mm 3 mps 773 mmHg 28%

    Tomorrow, 16 November, Friday

    Time Temperature Precipitation Wind Pressure Humidity
    00:00 -7°C° 0 mm 3 mps 773 mmHg 28%
    01:00 -7°C° 0 mm 3 mps 773 mmHg 29%
    02:00 -7°C° 0 mm 3 mps 773 mmHg 29%
    03:00 -7°C° 0 mm 3 mps 774 mmHg 30%
    04:00 -7°C° 0 mm 3 mps 774 mmHg 31%
    05:00 -7°C° 0 mm 3 mps 774 mmHg 32%
    06:00 -8°C° 0 mm 3 mps 774 mmHg 33%
    07:00 -7°C° 0 mm 3 mps 774 mmHg 32%
    08:00 -6°C° 0 mm 3 mps 774 mmHg 30%
    09:00 -5°C° 0 mm 3 mps 774 mmHg 29%
    10:00 -4°C° 0 mm 3 mps 774 mmHg 28%
    11:00 -2°C° 0 mm 3 mps 774 mmHg 26%
    12:00 -1°C° 0 mm 3 mps 774 mmHg 24%
    13:00 -1°C° 0 mm 3 mps 774 mmHg 26%
    14:00 -1°C° 0 mm 3 mps 773 mmHg 27%
    15:00 -2°C° 0 mm 3 mps 773 mmHg 29%
    16:00 -2°C° 0 mm 3 mps 773 mmHg 30%
    17:00 -4°C° 0 mm 3 mps 773 mmHg 31%
    18:00 -5°C° 0 mm 3 mps 773 mmHg 33%
    19:00 -5°C° 0 mm 3 mps 773 mmHg 32%
    20:00 -5°C° 0 mm 3 mps 773 mmHg 32%
    21:00 -5°C° 0 mm 3 mps 773 mmHg 32%
    22:00 -5°C° 0 mm 2 mps 773 mmHg 31%
    23:00 -5°C° 0 mm 2 mps 773 mmHg 31%

    Day after tomorrow, 17 November, Saturday

    Time Temperature Precipitation Wind Pressure Humidity
    00:00 -5°C° 0 mm 2 mps 772 mmHg 31%
    01:00 -5°C° 0 mm 2 mps 772 mmHg 31%
    02:00 -5°C° 0 mm 2 mps 772 mmHg 30%
    03:00 -5°C° 0 mm 2 mps 772 mmHg 30%
    04:00 -5°C° 0 mm 2 mps 771 mmHg 30%
    05:00 -6°C° 0 mm 2 mps 771 mmHg 29%
    06:00 -6°C° 0 mm 2 mps 771 mmHg 29%
    07:00 -5°C° 0 mm 2 mps 771 mmHg 27%
    08:00 -2°C° 0 mm 1 mps 770 mmHg 25%
    09:00 -1°C° 0 mm 1 mps 770 mmHg 23%
    10:00 0°C° 0 mm 1 mps 770 mmHg 22%
    11:00 +1°C° 0 mm 1 mps 769 mmHg 20%
    12:00 +2°C° 0 mm 1 mps 769 mmHg 18%
    13:00 +2°C° 0 mm 1 mps 768 mmHg 20%
    14:00 +1°C° 0 mm 1 mps 768 mmHg 22%
    15:00 +1°C° 0 mm 1 mps 767 mmHg 23%
    16:00 -2°C° 0 mm 2 mps 767 mmHg 24%
    17:00 -3°C° 0 mm 2 mps 767 mmHg 25%
    18:00 -3°C° 0 mm 2 mps 766 mmHg 26%
    19:00 -4°C° 0 mm 2 mps 766 mmHg 26%
    20:00 -2°C° 0 mm 1 mps 765 mmHg 25%
    21:00 -2°C° 0 mm 1 mps 765 mmHg 25%
    22:00 -2°C° 0 mm 1 mps 765 mmHg 25%
    23:00 -4°C° 0 mm 2 mps 765 mmHg 25%

    18 November, Sunday

    Time Temperature Precipitation Wind Pressure Humidity
    00:00 -4°C° 0 mm 2 mps 764 mmHg 25%
    01:00 -4°C° 0 mm 2 mps 764 mmHg 25%
    02:00 -5°C° 0 mm 2 mps 764 mmHg 25%
    03:00 -5°C° 0 mm 2 mps 764 mmHg 26%
    04:00 -5°C° 0 mm 2 mps 763 mmHg 26%
    05:00 -5°C° 0 mm 2 mps 763 mmHg 26%
    06:00 -3°C° 0 mm 1 mps 763 mmHg 27%
    07:00 -3°C° 0 mm 1 mps 762 mmHg 25%
    08:00 -2°C° 0 mm 1 mps 762 mmHg 24%
    09:00 -1°C° 0 mm 1 mps 762 mmHg 22%
    10:00 0°C° 0 mm 1 mps 762 mmHg 21%
    11:00 +1°C° 0 mm 1 mps 762 mmHg 20%
    12:00 +1°C° 0 mm 2 mps 762 mmHg 19%
    13:00 +2°C° 0 mm 1 mps 762 mmHg 20%
    14:00 +1°C° 0 mm 1 mps 762 mmHg 22%
    15:00 +1°C° 0 mm 1 mps 762 mmHg 24%
    16:00 0°C° 0 mm 1 mps 762 mmHg 25%
    17:00 0°C° 0 mm 1 mps 762 mmHg 25%
    18:00 0°C° 0 mm 1 mps 762 mmHg 26%
    19:00 -3°C° 0 mm 2 mps 762 mmHg 27%
    20:00 -3°C° 0 mm 2 mps 762 mmHg 27%
    21:00 -3°C° 0 mm 2 mps 762 mmHg 28%
    22:00 -3°C° 0 mm 2 mps 762 mmHg 27%
    23:00 -3°C° 0 mm 2 mps 762 mmHg 27%

    19 November, Monday

    Time Temperature Precipitation Wind Pressure Humidity
    00:00 -3°C° 0 mm 2 mps 763 mmHg 27%
    01:00 -3°C° 0 mm 2 mps 763 mmHg 27%
    02:00 -3°C° 0 mm 2 mps 763 mmHg 27%
    03:00 -4°C° 0 mm 3 mps 763 mmHg 27%
    04:00 -5°C° 0 mm 3 mps 763 mmHg 27%
    05:00 -5°C° 0 mm 3 mps 763 mmHg 27%
    06:00 -5°C° 0 mm 3 mps 763 mmHg 28%
    07:00 -4°C° 0 mm 3 mps 764 mmHg 26%
    08:00 -4°C° 0 mm 3 mps 764 mmHg 24%
    09:00 -2°C° 0 mm 3 mps 764 mmHg 23%
    10:00 -1°C° 0 mm 3 mps 764 mmHg 22%
    11:00 0°C° 0 mm 3 mps 765 mmHg 21%
    12:00 +2°C° 0 mm 2 mps 765 mmHg 20%
    13:00 +1°C° 0 mm 2 mps 765 mmHg 22%
    14:00 +1°C° 0 mm 2 mps 765 mmHg 24%
    15:00 -1°C° 0 mm 2 mps 765 mmHg 26%
    16:00 -2°C° 0 mm 3 mps 765 mmHg 26%
    17:00 -2°C° 0 mm 3 mps 766 mmHg 27%
    18:00 -4°C° 0 mm 3 mps 766 mmHg 28%
    19:00 -4°C° 0 mm 3 mps 766 mmHg 28%
    20:00 -5°C° 0 mm 3 mps 766 mmHg 28%
    21:00 -4°C° 0 mm 2 mps 766 mmHg 29%
    22:00 -4°C° 0 mm 2 mps 766 mmHg 29%
    23:00 -4°C° 0 mm 2 mps 766 mmHg 30%

    20 November, Tuesday

    Time Temperature Precipitation Wind Pressure Humidity
    00:00 -4°C° 0 mm 2 mps 767 mmHg 30%
    01:00 -5°C° 0 mm 2 mps 767 mmHg 31%
    02:00 -5°C° 0 mm 2 mps 767 mmHg 33%
    03:00 -5°C° 0 mm 2 mps 767 mmHg 34%
    04:00 -5°C° 0 mm 2 mps 767 mmHg 38%
    05:00 -5°C° 0 mm 2 mps 767 mmHg 43%
    06:00 -5°C° 0 mm 2 mps 767 mmHg 48%
    07:00 -5°C° 0 mm 2 mps 767 mmHg 50%
    08:00 -4°C° 0 mm 2 mps 767 mmHg 53%
    09:00 -4°C° 0 mm 2 mps 767 mmHg 56%
    10:00 -3°C° 0 mm 2 mps 767 mmHg 56%
    11:00 -2°C° 0 mm 2 mps 767 mmHg 56%
    12:00 -1°C° 0 mm 2 mps 767 mmHg 57%
    13:00 -1°C° 0 mm 2 mps 767 mmHg 61%
    14:00 -1°C° 0 mm 2 mps 766 mmHg 64%
    15:00 -2°C° 0 mm 2 mps 766 mmHg 68%
    16:00 -2°C° 0 mm 2 mps 766 mmHg 73%
    17:00 -3°C° 0 mm 2 mps 766 mmHg 78%
    18:00 -4°C° 0 mm 2 mps 766 mmHg 83%
    19:00 -2°C° 0 mm 1 mps 766 mmHg 85%
    20:00 -1°C° 0 mm 1 mps 766 mmHg 87%
    21:00 -1°C° 0 mm 1 mps 766 mmHg 88%
    22:00 -1°C° 0 mm 1 mps 766 mmHg 89%
    23:00 -1°C° 0 mm 1 mps 766 mmHg 89%
    Show more